Location: Chochol
(49.7771°N, 14.9780°E)
Time: 11:50:50
(UTC+00:00)

SL-16 R/B - Pass Details

Date: 09 April 2020
Orbit: 842 x 846 km, 71.0° (Epoch: 27 May)

Event Time Altitude Azimuth Distance (km) Brightness Sun altitude
Rises 19:44:37 0° 333° (NNW) 3,415 6.5 -18.2°
Reaches altitude 10° 19:48:08 10° 354° (N) 2,478 5.2 -18.6°
Maximum altitude 19:51:32 16° 32° (NNE) 2,082 4.3 -19.0°
Enters shadow 19:54:57 10° 69° (ENE) 2,473 4.4 -19.5°
